Regional Weather Roundup
Issued by NWS

Home | Current Version | Previous Version | Text Only | Print | Product List | Glossary On
Versions: 1 2 3 4 5 6 7 8 9 10 11 12 13 14 15 16 17 18 19 20 21 22 23 24 25 26 27 28 29 30 31 32 33 34 35 36 37 38 39 40 41 42 43 44 45 46 47 48 49 50
000
ASUS44 KBMX 261510
RWRAL

ALABAMA REGIONAL WEATHER ROUNDUP
NATIONAL WEATHER SERVICE BIRMINGHAM AL
1000 AM CDT SAT JUL 26 2014

NOTE: "FAIR" INDICATES FEW OR NO CLOUDS BELOW 12,000 FEET
WITH NO SIGNIFICANT WEATHER AND/OR OBSTRUCTIONS TO VISIBILITY.

THE REMARK "TC" DENOTES TEMPERATURE IN DEGREES CELSIUS.

ALZ001>011-014-016>018-020-261600-
NORTH ALABAMA

CITY           SKY/WX    TMP DP  RH WIND       PRES   REMARKS
MUSCLE SHOALS  SUNNY     82  65  56 SW10      30.07S
HUNTSVILLE     SUNNY     81  67  62 W5        30.07S
DECATUR        SUNNY     80  68  66 CALM      30.07S
HALEYVILLE     FAIR      79  67  66 SW7       30.11S
GADSDEN        SUNNY     79  64  61 SW5       30.07F
$$

ALZ012-013-022-023-030>036-040>044-261600-
WEST CENTRAL ALABAMA

CITY           SKY/WX    TMP DP  RH WIND       PRES   REMARKS
TUSCALOOSA     SUNNY     82  67  60 S3        30.08S
$$

ALZ015-024>027-033>036-040>044-261600-
CENTRAL ALABAMA

CITY           SKY/WX    TMP DP  RH WIND       PRES   REMARKS
BIRMINGHAM     MOSUNNY   83  64  52 NW7       30.10S
MONTGOMERY     SUNNY     86  72  62 W3        30.07S HX  92
SHELBY CO ARPT SUNNY     82  68  62 VRB3      30.09S
MAXWELL AFB    SUNNY     84  71  65 VRB1      30.07S HX  90
GREENVILLE     FAIR      86  72  62 NW6       30.08S HX  92
$$

ALZ019-021-028-029-037-038-045>048-261600-
EAST CENTRAL ALABAMA

CITY           SKY/WX    TMP DP  RH WIND       PRES   REMARKS
ANNISTON       SUNNY     82  64  54 SW9       30.09S
ALEXANDER CITY HAZE      84  67  56 NW3       30.10S VSB 1/2
AUBURN         SUNNY     82  66  57 NW7       30.13S
$$

ALZ051>064-261600-
SOUTHWEST ALABAMA

CITY           SKY/WX    TMP DP  RH WIND       PRES   REMARKS
MOBILE         MOSUNNY   83  78  85 W5        30.10S HX  93
BROOKLEY FIELD MOSUNNY   84  78  82 VRB5      30.10R HX  95
EVERGREEN      SUNNY     87  75  67 W6        30.08S HX  96
$$

ALZ049-050-065>069-261600-
SOUTHEAST ALABAMA

CITY           SKY/WX    TMP DP  RH WIND       PRES   REMARKS
DOTHAN         MOSUNNY   83  75  77 N5        30.13R HX  90
OZARK          SUNNY     82  76  80 S5        30.09R
TROY           SUNNY     86  73  65 CALM      30.09S HX  93
EUFAULA        FAIR      88  73  61 CALM      30.07R HX  95
$$


USA.gov is the U.S. government's official web portal to all federal, state and local government web resources and services.